Regional Weather Roundup
Issued by NWS

Home | Current Version | Previous Version | Graphics & Text | Print | Product List | Glossary On
Versions: 1 2 3 4 5 6 7 8 9 10 11 12 13 14 15 16 17 18 19 20 21 22 23 24 25 26 27 28 29 30 31 32 33 34 35 36 37 38 39 40 41 42 43 44 45 46 47 48 49 50
000
ASUS45 KTFX 220204
RWRMT
MONTANA HOURLY WEATHER ROUNDUP
NATIONAL WEATHER SERVICE GREAT FALLS MT
704 PM MST SUN DEC 21 2014

NOTE: "FAIR" INDICATES FEW OR NO CLOUDS BELOW 12000 FEET WITH NO
SIGNIFICANT WEATHER AND/OR OBSTRUCTIONS TO VISIBILITY.

* THESE STATIONS ARE NOT UNDER NWS QUALITY CONTROL. THEY DO NOT
   REPORT WEATHER SUCH AS PRECIPITATION OR FOG.

MTZ001>007-043-220300-
WEST OF THE DIVIDE
CITY           SKY/WX    TMP DP  RH WIND       PRES   REMARKS
KALISPELL      CLOUDY    39  28  65 CALM      29.78R
MISSOULA       MOCLDY    37  28  70 NW8       29.84S WCI  31
BUTTE          MOCLDY    32  25  75 NW8       29.80R WCI  25
MULLAN PASS    CLOUDY    28  27  96 W9        29.83R WCI  19
* ESSEX        N/A       33  31  92 NE1        N/A
* LINCOLN      N/A       35  29  79 SW7G18     N/A   WCI  29
* LOOKOUT PASS N/A       36  27  70 NE2G9      N/A
* POLSON       N/A       35  26  70 S1G6       N/A
* RONAN APT    PTCLDY    39  30  70 N/A        N/A
* SEELEY LAKE  N/A       36  27  70 N2G15      N/A
* THOMP F APT  MOCLDY    28  21  75 N6G18      N/A   WCI  21
* YAAK HILL    N/A       43  26  51 N/A        N/A
$$

MTZ008-052>055-220300-
SOUTHWEST MONTANA
CITY           SKY/WX    TMP DP  RH WIND       PRES   REMARKS
BOZEMAN        PTCLDY    32  27  82 W9        29.78R WCI  24
DILLON         PTCLDY    34  27  76 W18       29.80S WCI  23
* W YELLOWSTON MOCLDY    29  24  82 SW4        N/A
* THREE FORKS  PTCLDY    36  -4  18 SW20G25    N/A   WCI  25
* BOULDER HILL N/A       32  14  47 S6G20      N/A   WCI  26
* MONIDA PASS  N/A       29  17  61 NW20G27    N/A   WCI  16
* RAYNOLDS PAS N/A       31 -17  11 VRB11G17    N/A   WCI  22
* WHITEHALL    N/A       33  31  92 E2         N/A
* WISE RIVER   N/A       30  25  82 W7G20      N/A   WCI  23
$$

MTZ009>010-012-014-046-048-049-054-220300-
EAST SLOPES AND CENTRAL MONTANA
CITY           SKY/WX    TMP DP  RH WIND       PRES   REMARKS
CUT BANK       CLEAR     34  25  70 W16       29.61R WCI  24
GREAT FALLS    PTCLDY    36  25  64 W16       29.64R WCI  26
HELENA         PTCLDY    39  25  57 W18G31    29.72R WCI  30
* DEARBORN     N/A       42  24  49 S19G25     N/A
* EAST GLACIER N/A       34  23  64 NW24G34    N/A   WCI  22
* MONARCH      N/A       34  14  44 W19G30     N/A   WCI  23
* PENDROY      N/A       36  23  59 NW22G31    N/A   WCI  25
* SWEET GRASS  N/A       36  25  64 W26G32     N/A   WCI  24
$$

MTZ011-013-016-021-035-040-045-047-050-051-220300-
NORTH CENTRAL MONTANA
CITY           SKY/WX    TMP DP  RH WIND       PRES   REMARKS
HAVRE          CLOUDY    37  28  70 NW13      29.55R WCI  29
LEWISTOWN      CLOUDY    39  25  57 W23G36    29.58S WCI  28
* N BAR RANCH  CLOUDY    34  30  85 NW21G31   29.55R WCI  22
* CHESTER      N/A       37  29  73 NW9G14     N/A   WCI  30
* DENTON       N/A       42  24  49 W22G31     N/A
* JUDITH GAP   N/A       34  24  67 NW8G16     N/A   WCI  27
* LOMA         N/A       43  25  49 SW13G23    N/A
$$

MTZ017>020-022>027-061-062-220300-
NORTHEAST MONTANA
CITY           SKY/WX    TMP DP  RH WIND       PRES   REMARKS
GLASGOW        CLOUDY    36  30  79 W9        29.38R WCI  29
GLENDIVE       MOCLDY    37  36  96 W20       29.39S WCI  27
JORDAN         MOCLDY    39  34  82 W16       29.45R WCI  30
SIDNEY         CLOUDY    34  32  92 CALM      29.39S
WOLF POINT     CLOUDY    34  30  85 W9        29.37S WCI  27
* BEAVER HILL  N/A       35  34  96 SW11       N/A   WCI  27
* CIRCLE       N/A       38  35  89 W3G11      N/A
* LINDSAY DVD  N/A       38  35  89 W19G25     N/A   WCI  28
* SACO         N/A       37  33  85 W22G27     N/A   WCI  26
$$

MTZ028>042-056>058-220300-
SOUTHCENTRAL AND SOUTHEAST MONTANA
CITY           SKY/WX    TMP DP  RH WIND       PRES   REMARKS
BAKER          LGT RAIN  37 N/A N/A W17G24    29.41R WCI  27
BILLINGS       MOCLDY    45  19  35 W25G36    29.59R
LIVINGSTON     PTCLDY    37  27  67 W26G39    29.68R WCI  25
MILES CITY     CLOUDY    41  34  76 NW18G31   29.46R
* LAUREL APT   MOCLDY    45  18  34 W10G18     N/A
* ROUNDUP APT  CLOUDY    43  27  53 W24G29     N/A
* ALZADA       N/A       37  36  96 W12        N/A   WCI  29
* HYSHAM       N/A       40  29  65 W17G32     N/A   WCI  31
* LAME DEER    N/A       36  31  82 W12G19     N/A   WCI  28
* REED POINT   N/A       41  20  43 W16G30     N/A
* ROSCOE HILL  N/A       37   9  31 W11G30     N/A   WCI  29
$$

REGIONAL REPORTS...DAKOTAS
CITY           SKY/WX    TMP DP  RH WIND       PRES   REMARKS
WILLISTON      CLOUDY    28  25  89 CALM      29.36F
DICKINSON      LGT RAIN  37  36  96 SW8       29.35S WCI  31
CROSBY         MOCLDY    28  28 100 E5        29.38R WCI  22
WATFORD CITY   CLOUDY    34  30  85 S3        29.35R
BISMARCK       FOG       30  28  92 SE12      29.46R WCI  20
GRAND FORKS    CLOUDY    32  30  92 SE10      29.58S WCI  24
FARGO          CLOUDY    36  32  85 SE12      29.58R WCI  28
BUFFALO SD     CLOUDY    39  36  89 W20       29.34R WCI  29
RAPID CITY     MOCLDY    39  34  82 N12       29.44F WCI  32
$$

REGIONAL REPORTS...WYOMING/IDAHO/WASHINGTON
CITY           SKY/WX    TMP DP  RH WIND       PRES   REMARKS
GILLETTE       FOG       34  30  85 N/A       29.53R
SHERIDAN       CLOUDY    41  25  53 NW20G38   29.56R
CODY           CLOUDY    36  30  79 W6        29.65R WCI  31
YELLOWSTONE LA PTCLDY    27  19  72 VRB6      29.76R WCI  20
SALMON         MOCLDY    39  27  62 N12       29.89R WCI  32
MULLAN PASS    CLOUDY    28  27  96 W9        29.83S WCI  19
SAND POINT     MOCLDY    43  34  71 W9        29.87R
SPOKANE        CLOUDY    43  34  71 SW12      29.89R
$$

REGIONAL REPORTS...ALBERTA
CITY           SKY/WX    TMP DP  RH WIND       PRES   REMARKS
EDMONTON       LGT SNOW  28  25  89 W5        29.53S WCI  22

$$




USA.gov is the U.S. government's official web portal to all federal, state and local government web resources and services.